Погода в Первомайске

Россия / Республика Мордовия     54°25′20″N   45°01′46″E
темп.,
°C
ветер,
м/с
пор.,
м/с
влажн.,
%
обл.,
%
осадки,
мм/ч
давл.,
гПа
погр.,
м
17 апреля, сб
сб1700:00+10всв5128051 0.0 1022365
03:00+8всв5118529 0.0 1023281
06:00+7всв6128537 0.0 1023304
09:00+11в797156 0.0 1022474
12:00+15в79575 0.0 1022911
15:00+17в78517 0.0 10211290
18:00+14в811555 0.0 1021769
21:00+10в7135810 0.0 1021404
18 апреля, вс
вс1800:00+8в51256100 0.0 1021378
03:00+6всв51160100 0.1 1022313
06:00+6всв51265100 0.0 1021352
09:00+8в6854100 0.1 1022592
12:00+10в4751100 0.2 1021850
15:00+7юв4979100 2.8 1023600
18:00+6юв5988100 6.8 1023455
21:00+7всв41078100 8.1 1023581
19 апреля, пн
пн1900:00+7всв51079100 0.2 1023488
03:00+6всв61188100 0.3 1024443
06:00+4всв51185100 0.3 1024469
09:00+6в7106599 0.3 1025701
12:00+9в8956100 0.0 10251187
15:00+9в81049100 0.0 10251348
18:00+8в71060100 0.0 10251202
21:00+5в7137195 0.0 1026701
20 апреля, вт
вт2000:00+4в7137773 0.0 1025645
03:00+4в71377100 0.0 1025699
06:00+4в7147899 0.0 1025724
09:00+6вюв81376100 0.0 1024860
12:00+9вюв91265100 0.0 10231069
15:00+9вюв91366100 0.0 10221094
18:00+8вюв101669100 0.0 1021997
21:00+6юв91769100 0.0 1020880
21 апреля, ср
ср2100:00+5вюв102082100 1.6 1017741
03:00+6юв112289100 4.4 1015770
06:00+6юв102089100 1.4 1014964
09:00+7ююв101887100 1.8 1015801
12:00+8ююв91683100 0.0 1016955
15:00+7ююв81589100 0.0 1017835
18:00+6ююв81591100 0.1 1019614
21:00+6ю61393100 0.1 1021503